Location: Dodgeville
(42.9600°N, 90.1300°W)
Time: 19:12:46
(UTC-05:00)

Amateur Radio Satellites - All Passes

Search period start: 16 October 2017 18:42
Search period end: 17 October 2017 18:42
Location: Dodgeville, 42.9600°N, 90.1300°W

Satellite Date Start Highest point End Downlink Frequencies (MHz)
Time Altitude Azimuth
NUDT-PHONESAT 16 Oct 18:45:55 18:49:36 58° 260° (W) 18:53:17 437.300
PCSat 16 Oct 18:55:15 19:00:42 79° 242° (WSW) 19:06:06 145.827
YUBILEINY 16 Oct 19:03:24 19:05:53 11° 52° (NE) 19:08:23 435.215
XW-2C 16 Oct 19:04:17 19:07:28 25° 265° (W) 19:10:39 145.795 - 145.815
ZACube-1 16 Oct 19:07:55 19:10:16 14° 62° (ENE) 19:12:38 437.345
AAUSAT CUBESAT 2 16 Oct 19:10:17 19:13:13 19° 66° (ENE) 19:16:10 437.432
UWE-3 16 Oct 19:18:28 19:22:31 31° 68° (ENE) 19:26:37 435.000/436.395/437.385
CUTE-I 16 Oct 19:21:35 19:26:15 31° 264° (W) 19:30:58 437.470
STARS 16 Oct 19:24:15 19:28:31 47° 289° (WNW) 19:32:45 437.465
nSIGHT-1 16 Oct 19:33:05 19:34:45 13° 228° (SW) 19:36:25 .
HO-68 16 Oct 19:40:53 19:47:58 64° 257° (WSW) 19:55:07 435.675
Oscar 11 16 Oct 19:51:18 19:54:39 22° 66° (ENE) 19:58:00 .
CUTE 1.7 + AOD 2 16 Oct 19:51:54 19:55:53 39° 262° (W) 19:59:53 437.475
XW-2A 16 Oct 19:53:27 19:56:52 85° 80° (E) 20:00:19 145.665 - 145.685
CUBEBUG 2 16 Oct 20:07:06 20:11:35 51° 261° (W) 20:16:12 437.445
SEEDS 16 Oct 20:07:27 20:11:26 42° 262° (W) 20:15:25 437.485
FO-29 16 Oct 20:13:54 20:16:37 12° 87° (E) 20:19:24 435.910
AO-73 16 Oct 20:22:02 20:26:33 67° 74° (ENE) 20:31:06 145.935
STRAND 1 16 Oct 20:38:00 20:43:13 84° 104° (ESE) 20:48:22 437.568
ZACube-1 16 Oct 20:41:25 20:45:58 69° 258° (WSW) 20:50:34 437.345
PCSat 16 Oct 20:42:22 20:43:09 10° 259° (W) 20:43:57 145.827
AAUSAT CUBESAT 2 16 Oct 20:44:36 20:48:25 36° 263° (W) 20:52:15 437.432
UWE-3 16 Oct 20:54:55 20:58:55 28° 266° (W) 21:02:58 435.000/436.395/437.385
YUBILEINY 16 Oct 20:56:25 21:05:02 56° 76° (ENE) 21:13:39 435.215
O/OREOS (USA 219) 16 Oct 20:58:59 21:02:21 21° 101° (E) 21:05:45 437.305
DELFI C3 16 Oct 21:16:56 21:20:33 37° 72° (ENE) 21:24:10 145.870
BEESAT 2 16 Oct 21:23:22 21:24:41 11° 35° (NE) 21:25:58 435.950
Oscar 11 16 Oct 21:26:35 21:30:34 35° 263° (W) 21:34:35 .
Max Valier Satellite 16 Oct 21:29:44 21:33:12 37° 72° (ENE) 21:36:41 145.860
EO-88 16 Oct 21:30:03 21:33:10 27° 70° (ENE) 21:36:17 145.990 - 145.960
UNISAT 6 16 Oct 21:36:10 21:37:44 12° 88° (E) 21:39:17 437.425
BEESAT 3 16 Oct 21:48:36 21:52:24 42° 51° (NE) 21:56:07 437.485
TIGRISAT 16 Oct 21:51:09 21:53:55 16° 90° (E) 21:56:40 435.000
FO-29 16 Oct 21:55:45 22:02:26 73° 103° (ESE) 22:09:54 435.910
AO-85 16 Oct 21:58:22 22:01:37 19° 42° (NE) 22:05:00 145.980
AO-73 16 Oct 22:01:13 22:03:13 13° 271° (W) 22:05:14 145.935
STRAND 1 16 Oct 22:19:05 22:21:40 14° 302° (WNW) 22:24:14 437.568
PRISM 16 Oct 22:22:16 22:24:24 14° 92° (E) 22:26:32 437.425
LO-87 16 Oct 22:33:33 22:36:15 20° 68° (ENE) 22:38:59 145.935 - 145.965
O/OREOS (USA 219) 16 Oct 22:37:09 22:41:27 41° 299° (WNW) 22:45:50 437.305
ESTCUBE 1 16 Oct 22:49:55 22:53:42 27° 67° (ENE) 22:57:29 437.505/2401.250
DELFI C3 16 Oct 22:52:56 22:55:26 16° 268° (W) 22:57:57 145.870
YUBILEINY 16 Oct 22:53:51 23:01:23 34° 276° (W) 23:08:56 435.215
BEESAT 2 16 Oct 22:59:07 23:03:10 70° 55° (NE) 23:07:09 435.950
EO-88 16 Oct 23:04:04 23:06:48 20° 266° (W) 23:09:32 145.990 - 145.960
Max Valier Satellite 16 Oct 23:04:56 23:07:10 15° 268° (W) 23:09:24 145.860
UNISAT 6 16 Oct 23:10:19 23:14:59 74° 285° (WNW) 23:19:31 437.425
TIGRISAT 16 Oct 23:26:24 23:30:58 55° 287° (WNW) 23:35:24 435.000
BEESAT 3 16 Oct 23:26:53 23:29:38 18° 248° (WSW) 23:32:20 437.485
AO-85 16 Oct 23:37:52 23:42:24 69° 239° (WSW) 23:47:16 145.980
FO-29 16 Oct 23:41:57 23:46:59 24° 298° (WNW) 23:52:25 435.910
QB50P2 16 Oct 23:47:02 23:49:06 13° 90° (E) 23:51:09 145.880/145.840
AIST 2D 16 Oct 23:51:33 23:54:44 33° 97° (E) 23:57:53 435.315
NANOSAT C BR1 16 Oct 23:54:42 23:56:36 13° 90° (E) 23:58:32 145.865
PRISM 16 Oct 23:55:57 23:59:57 50° 287° (WNW) 00:03:56 437.425
LO-87 17 Oct 00:06:29 00:09:31 25° 264° (W) 00:12:35 145.935 - 145.965
DUCHIFAT 1 17 Oct 00:07:15 00:09:48 15° 91° (E) 00:12:21 145.980
RS-15 17 Oct 00:10:20 00:19:47 27° 101° (E) 00:29:15 29.354- 29.394
SPROUT 17 Oct 00:19:48 00:24:00 58° 73° (ENE) 00:28:13 437.525
DX 1 17 Oct 00:19:48 00:21:13 11° 60° (ENE) 00:22:37 434.975-435.025
ESTCUBE 1 17 Oct 00:26:25 00:30:23 30° 264° (W) 00:34:22 437.505/2401.250
VELOX 1 17 Oct 00:33:21 00:37:38 58° 73° (ENE) 00:41:57 145.980
BEESAT 2 17 Oct 00:39:06 00:40:18 11° 252° (WSW) 00:41:30 435.950
UKube-1 17 Oct 00:51:07 00:53:41 16° 63° (ENE) 00:56:14 .
EO-79 17 Oct 00:57:25 01:01:42 72° 102° (ESE) 01:05:56 145.935-145.965
POLYITAN 1 17 Oct 01:00:58 01:05:17 79° 103° (ESE) 01:09:31 437.675
QB50P2 17 Oct 01:21:02 01:25:14 56° 287° (WNW) 01:29:24 145.880/145.840
AIST 2D 17 Oct 01:25:37 01:27:37 15° 294° (WNW) 01:29:38 435.315
NANOSAT C BR1 17 Oct 01:28:29 01:32:41 58° 287° (WNW) 01:36:50 145.865
DUCHIFAT 1 17 Oct 01:41:38 01:45:44 47° 288° (WNW) 01:49:47 145.980
50 SAT 17 Oct 01:46:34 01:49:47 62° 259° (WSW) 01:53:02 437.505
DX 1 17 Oct 01:52:26 01:56:45 78° 256° (WSW) 02:01:07 434.975-435.025
M-CUBED/EXP-1 PRIME 17 Oct 01:54:57 01:57:19 17° 101° (E) 01:59:45 437.505
SPROUT 17 Oct 01:58:18 02:00:15 13° 270° (W) 02:02:12 437.525
ITUPSAT 1 17 Oct 01:59:50 02:01:52 13° 59° (ENE) 02:03:55 437.325
BUGSAT 1 17 Oct 02:05:08 02:09:25 81° 104° (ESE) 02:13:37 437.445
MOZHAYETS 4 17 Oct 02:07:38 02:10:17 15° 62° (ENE) 02:12:56
Gurwin Techsat 1B 17 Oct 02:12:08 02:16:51 31° 96° (E) 02:21:32 435.225
VELOX 1 17 Oct 02:12:17 02:14:27 13° 270° (W) 02:16:37 145.980
Oscar 19 17 Oct 02:12:22 02:17:17 44° 99° (E) 02:22:08 437.125/150
BEESAT 17 Oct 02:16:40 02:19:55 19° 62° (ENE) 02:23:12 436.000
RS-15 17 Oct 02:18:27 02:30:48 87° 304° (NW) 02:43:11 29.354- 29.394
UKube-1 17 Oct 02:25:04 02:29:16 53° 259° (W) 02:33:29 .
EO-79 17 Oct 02:35:16 02:36:51 12° 299° (WNW) 02:38:27 145.935-145.965
POLYITAN 1 17 Oct 02:39:14 02:40:24 11° 300° (WNW) 02:41:33 437.675
AO-7 17 Oct 03:21:17 03:27:39 24° 93° (E) 03:33:59 .
M-CUBED/EXP-1 PRIME 17 Oct 03:28:42 03:31:47 31° 294° (WNW) 03:35:02 437.505
ITUPSAT 1 17 Oct 03:34:11 03:39:00 84° 257° (WSW) 03:43:51 437.325
MOZHAYETS 4 17 Oct 03:42:18 03:46:55 64° 259° (W) 03:51:32
BUGSAT 1 17 Oct 03:43:14 03:44:05 11° 300° (WNW) 03:44:56 437.445
CUBESAT XI-V 17 Oct 03:43:41 03:47:43 30° 68° (ENE) 03:51:45 437.345
Gurwin Techsat 1B 17 Oct 03:51:59 03:56:47 35° 293° (WNW) 04:01:35 435.225
Oscar 19 17 Oct 03:52:15 03:56:19 24° 296° (WNW) 04:00:23 437.125/150
BEESAT 17 Oct 03:52:36 03:57:16 54° 259° (W) 04:01:59 436.000
KKS-1 17 Oct 04:03:08 04:05:46 16° 62° (ENE) 04:08:24 437.445
ITAMSAT 1 17 Oct 04:15:36 04:20:32 40° 98° (E) 04:25:26 435.822/435.867
NO-84 17 Oct 04:19:20 04:23:12 33° 131° (SE) 04:27:01 435.350 FM
RS-15 17 Oct 04:34:09 04:45:12 36° 330° (NNW) 04:56:07 29.354- 29.394
STARS 17 Oct 04:46:34 04:49:32 18° 63° (ENE) 04:52:31 437.465
DOVE 4 17 Oct 04:59:35 05:02:26 15° 91° (E) 05:05:21 437.250
AO-7 17 Oct 05:12:52 05:21:10 77° 292° (WNW) 05:29:27 .
CUBESAT XI-V 17 Oct 05:21:03 05:25:02 28° 265° (W) 05:29:03 437.345
KKS-1 17 Oct 05:37:31 05:41:51 56° 259° (W) 05:46:15 437.445
ITAMSAT 1 17 Oct 05:55:25 05:59:48 28° 295° (WNW) 06:04:10 435.822/435.867
NO-84 17 Oct 05:56:28 06:00:35 43° 328° (NNW) 06:04:33 435.350 FM
CUTE-I 17 Oct 05:59:14 06:01:24 12° 88° (E) 06:03:33 437.470
XW-2D 17 Oct 06:00:48 06:01:58 11° 90° (E) 06:03:08 145.860 - 145.880
XW-2B 17 Oct 06:13:08 06:15:25 15° 92° (E) 06:17:40 145.730 - 145.750
NUDT-PHONESAT 17 Oct 06:16:55 06:18:13 12° 90° (E) 06:19:31 437.300
STRAND 1 17 Oct 06:17:47 06:21:10 18° 61° (ENE) 06:24:33 437.568
STARS 17 Oct 06:21:17 06:25:30 47° 260° (W) 06:29:46 437.465
XW-2C 17 Oct 06:35:19 06:38:37 28° 96° (E) 06:41:53 145.795 - 145.815
DOVE 4 17 Oct 06:35:37 06:40:27 66° 285° (WNW) 06:45:31 437.250
RS-15 17 Oct 06:52:57 07:02:38 26° 5° (N) 07:12:02 29.354- 29.394
SO-50 17 Oct 06:53:24 06:55:11 12° 108° (ESE) 06:56:59 436.795
O/OREOS (USA 219) 17 Oct 07:06:47 07:11:15 46° 62° (ENE) 07:15:40 437.305
AO-7 17 Oct 07:07:14 07:12:39 20° 312° (NW) 07:18:04 .
HO-68 17 Oct 07:08:15 07:13:59 25° 93° (E) 07:19:38 435.675
LilacSat-2 17 Oct 07:20:28 07:24:14 70° 284° (WNW) 07:27:58 437.200
XW-2F 17 Oct 07:23:23 07:27:06 74° 284° (WNW) 07:30:48 145.980 - 146.000
KAITUO 1B 17 Oct 07:28:09 07:31:51 83° 284° (WNW) 07:35:31 145.475/437.950
XW-2D 17 Oct 07:32:48 07:36:26 50° 286° (WNW) 07:40:03 145.860 - 145.880
CUTE 1.7 + AOD 2 17 Oct 07:35:39 07:39:24 31° 96° (E) 07:43:08 437.475
NO-84 17 Oct 07:36:02 07:38:49 17° 347° (NNW) 07:41:31 435.350 FM
CUTE-I 17 Oct 07:36:42 07:42:06 86° 285° (WNW) 07:47:29 437.470
XW-2B 17 Oct 07:46:16 07:49:44 36° 288° (WNW) 07:53:10 145.730 - 145.750
NUDT-PHONESAT 17 Oct 07:48:49 07:52:21 46° 287° (WNW) 07:55:50 437.300
SEEDS 17 Oct 07:50:14 07:53:49 27° 95° (E) 07:57:23 437.485
STRAND 1 17 Oct 07:54:45 07:59:49 63° 258° (WSW) 08:04:57 437.568
CUBEBUG 2 17 Oct 07:57:08 08:01:23 33° 96° (E) 08:05:30 437.445
PCSat 17 Oct 07:59:03 08:00:16 11° 101° (ESE) 08:01:31 145.827
XW-2C 17 Oct 08:09:51 08:12:37 20° 293° (WNW) 08:15:23 145.795 - 145.815
YUBILEINY 17 Oct 08:10:13 08:11:46 11° 71° (ENE) 08:13:20 435.215
FO-29 17 Oct 08:10:49 08:15:16 29° 64° (ENE) 08:19:57 435.910
AO-73 17 Oct 08:11:19 08:12:58 12° 88° (E) 08:14:36 145.935
AAUSAT CUBESAT 2 17 Oct 08:25:27 08:29:06 29° 96° (E) 08:32:42 437.432
ZACube-1 17 Oct 08:29:36 08:33:02 22° 93° (E) 08:36:22 437.345
SO-50 17 Oct 08:30:31 08:35:00 76° 305° (NW) 08:39:31 436.795
UNISAT 6 17 Oct 08:35:47 08:37:50 13° 60° (ENE) 08:39:54 437.425
UWE-3 17 Oct 08:42:54 08:47:25 57° 100° (E) 08:51:46 435.000/436.395/437.385
XW-2A 17 Oct 08:46:38 08:50:00 78° 101° (E) 08:53:19 145.665 - 145.685
O/OREOS (USA 219) 17 Oct 08:47:07 08:50:16 19° 260° (W) 08:53:26 437.305
TIGRISAT 17 Oct 08:50:39 08:53:32 17° 62° (ENE) 08:56:28 435.000
HO-68 17 Oct 08:55:04 09:02:12 66° 291° (WNW) 09:09:18 435.675
RS-15 17 Oct 09:07:54 09:19:22 45° 38° (NE) 09:30:12 29.354- 29.394
CUTE 1.7 + AOD 2 17 Oct 09:11:44 09:15:05 23° 293° (WNW) 09:18:24 437.475
Oscar 11 17 Oct 09:12:29 09:16:30 37° 97° (E) 09:20:30 .
PRISM 17 Oct 09:13:16 09:14:46 12° 61° (ENE) 09:16:15 437.425
NO-84 17 Oct 09:15:04 09:17:30 15° 8° (N) 09:19:51 435.350 FM
CUTE-I 17 Oct 09:18:57 09:21:19 13° 303° (WNW) 09:23:43 437.470
SEEDS 17 Oct 09:25:58 09:29:24 26° 292° (WNW) 09:32:51 437.485
CUBEBUG 2 17 Oct 09:33:55 09:37:51 27° 293° (WNW) 09:41:41 437.445
PCSat 17 Oct 09:37:20 09:42:45 81° 119° (ESE) 09:48:13 145.827
AO-73 17 Oct 09:45:17 09:49:40 64° 286° (WNW) 09:53:54 145.935
FO-29 17 Oct 09:55:35 10:00:18 35° 264° (W) 10:05:15 435.910
YUBILEINY 17 Oct 09:58:07 10:06:37 62° 91° (E) 10:15:09 435.215
Tancredo 1 17 Oct 10:00:11 10:02:00 52° 144° (SE) 10:03:51 437.200
AAUSAT CUBESAT 2 17 Oct 10:01:07 10:04:24 23° 292° (WNW) 10:07:41 437.432
ZACube-1 17 Oct 10:05:21 10:09:24 35° 290° (WNW) 10:13:20 437.345
UNISAT 6 17 Oct 10:09:14 10:13:51 78° 257° (WSW) 10:18:34 437.425
SO-50 17 Oct 10:13:53 10:16:14 14° 325° (NW) 10:18:35 436.795
UWE-3 17 Oct 10:20:36 10:23:21 16° 298° (WNW) 10:26:03 435.000/436.395/437.385
TIGRISAT 17 Oct 10:25:11 10:29:44 59° 260° (W) 10:34:22 435.000
DELFI C3 17 Oct 10:26:56 10:30:49 55° 100° (E) 10:34:42 145.870
AIST 2D 17 Oct 10:27:24 10:29:30 15° 67° (ENE) 10:31:35 435.315
EO-88 17 Oct 10:30:47 10:34:01 30° 97° (E) 10:37:14 145.990 - 145.960
Max Valier Satellite 17 Oct 10:32:05 10:35:38 44° 99° (E) 10:39:08 145.860
nSIGHT-1 17 Oct 10:35:45 10:37:13 13° 131° (SE) 10:38:40 .
QB50P2 17 Oct 10:41:05 10:42:51 12° 61° (ENE) 10:44:35 145.880/145.840
HO-68 17 Oct 10:45:08 10:48:35 14° 311° (NW) 10:52:02 435.675
PRISM 17 Oct 10:45:28 10:49:29 65° 259° (WSW) 10:53:32 437.425
NANOSAT C BR1 17 Oct 10:48:18 10:49:50 12° 61° (ENE) 10:51:23 145.865
Oscar 11 17 Oct 10:49:12 10:52:24 21° 294° (WNW) 10:55:35 .
NO-84 17 Oct 10:52:16 10:55:51 35° 30° (NNE) 10:59:08 435.350 FM
ISS 17 Oct 10:58:35 11:00:56 19° 134° (SE) 11:03:18 437.550
DUCHIFAT 1 17 Oct 11:00:21 11:02:33 14° 62° (ENE) 11:04:44 145.980
RS-15 17 Oct 11:20:49 11:32:33 67° 244° (WSW) 11:43:38 29.354- 29.394
PCSat 17 Oct 11:22:56 11:26:49 20° 319° (NW) 11:30:43 145.827
LO-87 17 Oct 11:32:08 11:35:00 21° 94° (E) 11:37:50 145.935 - 145.965
Tancredo 1 17 Oct 11:33:02 11:34:02 13° 341° (NNW) 11:35:02 437.200
EO-79 17 Oct 11:50:08 11:54:18 58° 74° (ENE) 11:58:31 145.935-145.965
POLYITAN 1 17 Oct 11:53:47 11:58:01 64° 74° (ENE) 12:02:17 437.675
Oscar 19 17 Oct 11:56:05 11:56:38 10° 55° (NE) 11:57:11 437.125/150
YUBILEINY 17 Oct 11:56:33 12:03:58 31° 293° (WNW) 12:11:28 435.215
AIST 2D 17 Oct 11:59:10 12:02:23 34° 263° (W) 12:05:38 435.315
DELFI C3 17 Oct 12:03:18 12:05:07 13° 296° (WNW) 12:06:54 145.870
EO-88 17 Oct 12:04:56 12:07:27 18° 293° (WNW) 12:09:57 145.990 - 145.960
Max Valier Satellite 17 Oct 12:07:14 12:09:03 13° 296° (WNW) 12:10:53 145.860
nSIGHT-1 17 Oct 12:09:53 12:13:04 80° 329° (NNW) 12:16:17 .
QB50P2 17 Oct 12:13:47 12:18:02 69° 258° (WSW) 12:22:20 145.880/145.840
ESTCUBE 1 17 Oct 12:17:10 12:21:32 50° 100° (E) 12:25:53 437.505/2401.250
NANOSAT C BR1 17 Oct 12:20:42 12:24:56 73° 259° (WSW) 12:29:13 145.865
NO-84 17 Oct 12:29:55 12:33:09 30° 230° (SW) 12:36:09 435.350 FM
DUCHIFAT 1 17 Oct 12:33:32 12:37:42 59° 259° (W) 12:41:56 145.980
ISS 17 Oct 12:33:56 12:37:09 57° 331° (NNW) 12:40:22 437.550
M-CUBED/EXP-1 PRIME 17 Oct 12:41:36 12:44:24 24° 65° (ENE) 12:47:09 437.505
BUGSAT 1 17 Oct 12:55:04 12:59:11 61° 74° (ENE) 13:03:22 437.445
LO-87 17 Oct 13:05:21 13:08:21 24° 291° (WNW) 13:11:20 145.935 - 145.965
BEESAT 3 17 Oct 13:15:29 13:19:24 54° 119° (ESE) 13:23:20 437.485
EO-79 17 Oct 13:28:28 13:30:26 13° 270° (W) 13:32:24 145.935-145.965
Oscar 19 17 Oct 13:29:52 13:35:01 71° 73° (ENE) 13:40:10 437.125/150
POLYITAN 1 17 Oct 13:32:37 13:34:12 12° 271° (W) 13:35:47 437.675
Gurwin Techsat 1B 17 Oct 13:33:54 13:39:03 54° 71° (ENE) 13:44:14 435.225
RS-15 17 Oct 13:37:09 13:42:22 14° 266° (W) 13:47:31 29.354- 29.394
SPROUT 17 Oct 13:40:00 13:44:20 81° 286° (WNW) 13:48:37 437.525
DX 1 17 Oct 13:40:39 13:43:28 17° 92° (E) 13:46:18 434.975-435.025
nSIGHT-1 17 Oct 13:47:11 13:49:44 21° 346° (NNW) 13:52:18 .
AO-85 17 Oct 13:54:02 13:57:20 27° 115° (ESE) 14:00:41 145.980
ESTCUBE 1 17 Oct 13:55:01 13:57:56 17° 297° (WNW) 14:00:51 437.505/2401.250
VELOX 1 17 Oct 13:58:24 14:02:50 78° 285° (WNW) 14:07:16 145.980
UKube-1 17 Oct 14:11:27 14:14:53 22° 95° (E) 14:18:16 .
ISS 17 Oct 14:11:38 14:14:08 20° 350° (N) 14:16:37 437.550
M-CUBED/EXP-1 PRIME 17 Oct 14:16:16 14:18:50 19° 259° (W) 14:21:19 437.505
AO-7 17 Oct 14:21:05 14:28:30 38° 58° (ENE) 14:35:55 .
BEESAT 2 17 Oct 14:27:50 14:31:51 85° 303° (WNW) 14:35:55 435.950
BUGSAT 1 17 Oct 14:33:22 14:34:56 12° 270° (W) 14:36:30 437.445
50 SAT 17 Oct 14:36:41 14:40:00 81° 285° (WNW) 14:43:18 437.505
Tancredo 1 17 Oct 14:37:47 14:38:51 14° 20° (NNE) 14:39:55 437.200
BEESAT 3 17 Oct 14:54:22 14:57:15 19° 318° (NW) 15:00:08 437.485
Oscar 19 17 Oct 15:12:03 15:14:50 14° 270° (W) 15:17:37 437.125/150
Gurwin Techsat 1B 17 Oct 15:15:29 15:19:19 20° 268° (W) 15:23:10 435.225
DX 1 17 Oct 15:15:41 15:19:53 46° 289° (WNW) 15:24:04 434.975-435.025
SO-50 17 Oct 15:21:07 15:24:29 20° 40° (NE) 15:27:52 436.795
nSIGHT-1 17 Oct 15:24:32 15:26:50 18° 7° (N) 15:29:08 .
AO-85 17 Oct 15:34:14 15:37:38 28° 314° (NW) 15:41:09 145.980
ITAMSAT 1 17 Oct 15:34:18 15:39:26 68° 73° (ENE) 15:44:37 435.822/435.867
ITUPSAT 1 17 Oct 15:34:22 15:38:10 23° 94° (E) 15:41:56 437.325
MOZHAYETS 4 17 Oct 15:36:43 15:40:39 27° 95° (E) 15:44:31
UKube-1 17 Oct 15:47:03 15:50:57 34° 291° (WNW) 15:54:50 .
ISS 17 Oct 15:48:56 15:51:26 20° 10° (N) 15:53:57 437.550
BEESAT 17 Oct 15:51:46 15:56:09 34° 97° (E) 16:00:29 436.000
DOVE 4 17 Oct 16:07:02 16:09:12 14° 62° (ENE) 16:11:24 437.250
BEESAT 2 17 Oct 16:08:19 16:10:13 13° 323° (NW) 16:12:08 435.950
Tancredo 1 17 Oct 16:08:55 16:10:39 40° 217° (SW) 16:12:22 437.200
AO-7 17 Oct 16:12:56 16:20:59 54° 258° (WSW) 16:29:05 .
PCSat 17 Oct 16:42:12 16:45:30 16° 38° (NE) 16:48:46 145.827
nSIGHT-1 17 Oct 17:00:38 17:03:43 42° 26° (NNE) 17:06:47 .
SO-50 17 Oct 17:00:48 17:05:23 68° 239° (WSW) 17:10:01 436.795
ITUPSAT 1 17 Oct 17:11:38 17:16:07 40° 291° (WNW) 17:20:34 437.325
MOZHAYETS 4 17 Oct 17:13:44 17:17:46 31° 292° (WNW) 17:21:45
CUBESAT XI-V 17 Oct 17:15:38 17:20:13 65° 101° (E) 17:24:47 437.345
ITAMSAT 1 17 Oct 17:16:23 17:19:23 15° 270° (W) 17:22:24 435.822/435.867
XW-2C 17 Oct 17:17:56 17:20:28 17° 66° (ENE) 17:23:00 145.795 - 145.815
CUTE-I 17 Oct 17:20:59 17:25:08 24° 63° (ENE) 17:29:19 437.470
ISS 17 Oct 17:25:10 17:28:25 58° 30° (NNE) 17:31:39 437.550
KKS-1 17 Oct 17:27:45 17:31:27 25° 95° (E) 17:35:09 437.445
BEESAT 17 Oct 17:29:46 17:33:46 27° 294° (WNW) 17:37:46 436.000
HO-68 17 Oct 17:38:54 17:44:05 22° 55° (NE) 17:49:17 435.675
DOVE 4 17 Oct 17:42:19 17:46:23 56° 260° (W) 17:50:37 437.250
LilacSat-2 17 Oct 18:02:35 18:06:23 61° 74° (ENE) 18:10:10 437.200
XW-2F 17 Oct 18:04:26 18:08:09 55° 74° (ENE) 18:11:52 145.980 - 146.000
KAITUO 1B 17 Oct 18:08:24 18:12:01 47° 73° (ENE) 18:15:37 145.475/437.950
STARS 17 Oct 18:09:41 18:13:32 28° 96° (E) 18:17:20 437.465
XW-2D 17 Oct 18:14:05 18:17:54 82° 77° (ENE) 18:21:43 145.860 - 145.880
PCSat 17 Oct 18:24:21 18:29:48 77° 58° (ENE) 18:35:13 145.827
XW-2B 17 Oct 18:27:27 18:31:15 71° 259° (W) 18:35:03 145.730 - 145.750
NUDT-PHONESAT 17 Oct 18:27:54 18:31:37 82° 79° (E) 18:35:22 437.300
CUTE 1.7 + AOD 2 17 Oct 18:29:09 18:32:38 25° 68° (ENE) 18:36:06 437.475
nSIGHT-1 17 Oct 18:37:09 18:39:53 26° 223° (SW) 18:42:37 .
